| time (UTC) | temp F | wind direction | speed MPH | gust MPH | rain 1hr in | rain 24hr in | rain mn in | humidity % | barometer mb |
| 20260506062423 | 79 | 2 | 8.0 | 14.0 | 0.00 | 0.00 | 0.00 | 86 | 1008.8 |
| 20260506061901 | 79 | 183 | 8.0 | 14.0 | 0.00 | 0.00 | 0.00 | 86 | 1008.9 |
| 20260506061352 | 79 | 200 | 9.0 | 14.0 | 0.00 | 0.00 | 0.00 | 86 | 1008.7 |
| 20260506060831 | 79 | 182 | 9.0 | 14.0 | 0.00 | 0.00 | 0.00 | 87 | 1008.6 |
| 20260506050532 | 79 | 185 | 12.0 | 18.0 | 0.00 | 0.00 | 0.00 | 86 | 1008.6 |
| 20260506043600 | 79 | 170 | 15.0 | 20.0 | 0.00 | 0.00 | 0.00 | 86 | 1008.6 |
| 20260506043043 | 79 | 2 | 14.0 | 19.0 | 0.00 | 0.00 | 0.00 | 86 | 1008.6 |
| 20260506042550 | 79 | 165 | 13.0 | 17.0 | 0.00 | 0.00 | 0.00 | 86 | 1008.6 |
| 20260506042041 | 79 | 157 | 13.0 | 17.0 | 0.00 | 0.00 | 0.00 | 86 | 1008.6 |
| 20260506041533 | 79 | 172 | 14.0 | 20.0 | 0.00 | 0.00 | 0.00 | 86 | 1008.6 |
| 20260506040346 | 79 | 175 | 14.0 | 20.0 | 0.00 | 0.00 | 0.00 | 86 | 1008.8 |
| 20260506035829 | 79 | 190 | 14.0 | 18.0 | 0.00 | 0.00 | 0.00 | 86 | 1008.7 |
| 20260506035330 | 79 | 173 | 13.0 | 18.0 | 0.00 | 0.00 | 0.00 | 86 | 1008.7 |
| 20260506034832 | 79 | 165 | 12.0 | 18.0 | 0.00 | 0.00 | 0.00 | 86 | 1008.7 |
| 20260506034333 | 79 | 2 | 13.0 | 18.0 | 0.00 | 0.00 | 0.00 | 86 | 1008.8 |
| 20260506033815 | 79 | 2 | 12.0 | 17.0 | 0.00 | 0.00 | 0.00 | 86 | 1008.7 |
| 20260506033322 | 79 | 194 | 13.0 | 18.0 | 0.00 | 0.00 | 0.00 | 86 | 1008.7 |
| 20260506032816 | 79 | 2 | 13.0 | 18.0 | 0.00 | 0.00 | 0.00 | 86 | 1008.6 |
| 20260506032305 | 79 | 2 | 13.0 | 18.0 | 0.00 | 0.00 | 0.00 | 86 | 1008.7 |
| 20260506031743 | 79 | 2 | 13.0 | 18.0 | 0.00 | 0.00 | 0.00 | 86 | 1008.8 |
| 20260506031235 | 79 | 187 | 13.0 | 18.0 | 0.00 | 0.00 | 0.00 | 86 | 1008.7 |
| 20260506030726 | 79 | 2 | 13.0 | 18.0 | 0.00 | 0.00 | 0.00 | 86 | 1008.6 |
| 20260506030226 | 79 | 2 | 12.0 | 19.0 | 0.00 | 0.00 | 0.00 | 86 | 1008.5 |
| 20260506025039 | 79 | 165 | 13.0 | 20.0 | 0.00 | 0.00 | 0.00 | 86 | 1008.3 |
| 20260506023913 | 79 | 189 | 14.0 | 20.0 | 0.00 | 0.00 | 0.00 | 86 | 1008.1 |
| 20260506023421 | 79 | 169 | 14.0 | 20.0 | 0.00 | 0.00 | 0.00 | 86 | 1008.0 |
| 20260506022904 | 79 | 149 | 14.0 | 19.0 | 0.00 | 0.00 | 0.00 | 86 | 1007.9 |
| 20260506021731 | 79 | 2 | 13.0 | 19.0 | 0.00 | 0.00 | 0.00 | 86 | 1007.8 |
| 20260506021219 | 79 | 2 | 13.0 | 19.0 | 0.00 | 0.00 | 0.00 | 86 | 1007.6 |
| 20260506020701 | 79 | 181 | 12.0 | 19.0 | 0.00 | 0.00 | 0.00 | 86 | 1007.6 |
| 20260506020158 | 79 | 190 | 11.0 | 18.0 | 0.00 | 0.00 | 0.00 | 86 | 1007.6 |
| 20260506015646 | 79 | 164 | 11.0 | 18.0 | 0.00 | 0.00 | 0.00 | 86 | 1007.6 |
| 20260506015131 | 79 | 2 | 12.0 | 18.0 | 0.00 | 0.00 | 0.00 | 86 | 1007.5 |
| 20260506014616 | 79 | 2 | 12.0 | 18.0 | 0.00 | 0.00 | 0.00 | 86 | 1007.5 |
| 20260506014118 | 79 | 2 | 12.0 | 17.0 | 0.00 | 0.00 | 0.00 | 86 | 1007.3 |
| 20260506013559 | 79 | 2 | 11.0 | 15.0 | 0.00 | 0.00 | 0.00 | 85 | 1007.1 |
| 20260506013053 | 79 | 2 | 12.0 | 17.0 | 0.00 | 0.00 | 0.00 | 85 | 1007.1 |
| 20260506012546 | 79 | 2 | 12.0 | 17.0 | 0.00 | 0.00 | 0.00 | 85 | 1007.1 |
| 20260506012052 | 79 | 2 | 12.0 | 17.0 | 0.00 | 0.00 | 0.00 | 85 | 1007.0 |
| 20260506011537 | 79 | 184 | 12.0 | 17.0 | 0.00 | 0.00 | 0.00 | 85 | 1006.9 |
| 20260506011032 | 79 | 2 | 11.0 | 16.0 | 0.00 | 0.00 | 0.00 | 85 | 1006.9 |
| 20260506010518 | 80 | 2 | 11.0 | 16.0 | 0.00 | 0.00 | 0.00 | 85 | 1006.9 |
| 20260506005343 | 80 | 170 | 11.0 | 16.0 | 0.00 | 0.00 | 0.00 | 85 | 1006.8 |
| 20260506004834 | 80 | 182 | 11.0 | 16.0 | 0.00 | 0.00 | 0.00 | 85 | 1006.9 |
| 20260506004313 | 80 | 2 | 11.0 | 16.0 | 0.00 | 0.00 | 0.00 | 85 | 1006.9 |
| 20260506003804 | 80 | 2 | 10.0 | 16.0 | 0.00 | 0.00 | 0.00 | 84 | 1006.9 |
| 20260506003243 | 80 | 2 | 10.0 | 15.0 | 0.00 | 0.00 | 0.00 | 84 | 1006.9 |
| 20260506002736 | 80 | 188 | 10.0 | 15.0 | 0.00 | 0.00 | 0.00 | 84 | 1007.0 |
| 20260506002243 | 80 | 2 | 11.0 | 15.0 | 0.00 | 0.00 | 0.00 | 84 | 1007.0 |
| 20260506001729 | 80 | 188 | 11.0 | 15.0 | 0.00 | 0.00 | 0.00 | 84 | 1006.9 |
| 20260506000603 | 80 | 196 | 11.0 | 15.0 | 0.00 | 0.00 | 0.00 | 84 | 1007.0 |
| 20260506000059 | 80 | 170 | 11.0 | 17.0 | 0.00 | 0.00 | 0.00 | 84 | 1007.0 |
| 20260505235605 | 80 | 184 | 12.0 | 17.0 | 0.00 | 0.00 | 0.00 | 83 | 1007.0 |
| 20260505234426 | 80 | 179 | 12.0 | 17.0 | 0.00 | 0.00 | 0.00 | 83 | 1007.0 |
| 20260505233904 | 80 | 2 | 11.0 | 16.0 | 0.00 | 0.00 | 0.00 | 83 | 1006.9 |
| 20260505233357 | 80 | 2 | 12.0 | 16.0 | 0.00 | 0.00 | 0.00 | 83 | 1007.0 |
| 20260505232837 | 81 | 184 | 12.0 | 16.0 | 0.00 | 0.00 | 0.00 | 83 | 1007.0 |
| 20260505232324 | 81 | 2 | 13.0 | 16.0 | 0.00 | 0.00 | 0.00 | 83 | 1007.0 |
| 20260505230542 | 81 | 202 | 12.0 | 18.0 | 0.00 | 0.00 | 0.00 | 82 | 1007.1 |
| 20260505230039 | 81 | 2 | 12.0 | 15.0 | 0.00 | 0.00 | 0.00 | 82 | 1007.1 |
| 20260505225521 | 81 | 2 | 12.0 | 15.0 | 0.00 | 0.00 | 0.00 | 82 | 1007.1 |
| 20260505225022 | 81 | 2 | 12.0 | 15.0 | 0.00 | 0.00 | 0.00 | 82 | 1007.2 |
| 20260505224509 | 81 | 2 | 12.0 | 15.0 | 0.00 | 0.00 | 0.00 | 82 | 1007.3 |
| 20260505223956 | 81 | 176 | 11.0 | 15.0 | 0.00 | 0.00 | 0.00 | 82 | 1007.2 |
| 20260505223446 | 81 | 190 | 11.0 | 15.0 | 0.00 | 0.00 | 0.00 | 82 | 1007.2 |
| 20260505222951 | 81 | 2 | 11.0 | 14.0 | 0.00 | 0.00 | 0.00 | 82 | 1007.2 |
| 20260505222431 | 81 | 2 | 12.0 | 14.0 | 0.00 | 0.00 | 0.00 | 81 | 1007.2 |
| 20260505221930 | 81 | 197 | 11.0 | 14.0 | 0.00 | 0.00 | 0.00 | 81 | 1007.2 |
| 20260505221436 | 82 | 2 | 11.0 | 14.0 | 0.00 | 0.00 | 0.00 | 82 | 1007.2 |
| 20260505220924 | 81 | 173 | 11.0 | 15.0 | 0.00 | 0.00 | 0.00 | 82 | 1007.3 |
| 20260505220425 | 81 | 2 | 11.0 | 15.0 | 0.00 | 0.00 | 0.00 | 81 | 1007.3 |
| 20260505215914 | 81 | 2 | 11.0 | 15.0 | 0.00 | 0.00 | 0.00 | 81 | 1007.3 |
| 20260505215416 | 81 | 182 | 11.0 | 15.0 | 0.00 | 0.00 | 0.00 | 81 | 1007.4 |
| 20260505214918 | 81 | 2 | 11.0 | 15.0 | 0.00 | 0.00 | 0.00 | 81 | 1007.5 |
| 20260505214406 | 81 | 2 | 11.0 | 15.0 | 0.00 | 0.00 | 0.00 | 81 | 1007.5 |
| 20260505213846 | 82 | 2 | 11.0 | 16.0 | 0.00 | 0.00 | 0.00 | 81 | 1007.5 |
| 20260505213340 | 82 | 2 | 11.0 | 16.0 | 0.00 | 0.00 | 0.00 | 81 | 1007.6 |
| 20260505212206 | 82 | 169 | 11.0 | 16.0 | 0.00 | 0.00 | 0.00 | 80 | 1007.7 |
| 20260505211648 | 82 | 185 | 11.0 | 14.0 | 0.00 | 0.00 | 0.00 | 80 | 1007.9 |
| 20260505210507 | 82 | 163 | 10.0 | 15.0 | 0.00 | 0.00 | 0.00 | 80 | 1008.2 |
| 20260505210012 | 82 | 165 | 10.0 | 15.0 | 0.00 | 0.00 | 0.00 | 80 | 1008.3 |
| 20260505205454 | 82 | 193 | 10.0 | 15.0 | 0.00 | 0.00 | 0.00 | 80 | 1008.3 |
| 20260505204327 | 82 | 182 | 10.0 | 16.0 | 0.00 | 0.00 | 0.00 | 80 | 1008.4 |
| 20260505203810 | 82 | 2 | 10.0 | 16.0 | 0.00 | 0.00 | 0.00 | 80 | 1008.5 |
| 20260505203304 | 82 | 2 | 11.0 | 16.0 | 0.00 | 0.00 | 0.00 | 80 | 1008.6 |
| 20260505202802 | 82 | 187 | 11.0 | 16.0 | 0.00 | 0.00 | 0.00 | 79 | 1008.6 |
| 20260505202307 | 82 | 2 | 10.0 | 14.0 | 0.00 | 0.00 | 0.00 | 80 | 1008.6 |
| 20260505201811 | 82 | 2 | 10.0 | 14.0 | 0.00 | 0.00 | 0.00 | 80 | 1008.6 |
| 20260505201317 | 82 | 2 | 10.0 | 14.0 | 0.00 | 0.00 | 0.00 | 79 | 1008.6 |
| 20260505200821 | 82 | 187 | 10.0 | 14.0 | 0.00 | 0.00 | 0.00 | 80 | 1008.6 |
| 20260505200311 | 82 | 2 | 10.0 | 13.0 | 0.00 | 0.00 | 0.00 | 80 | 1008.7 |
| 20260505195808 | 82 | 193 | 10.0 | 14.0 | 0.00 | 0.00 | 0.00 | 79 | 1008.6 |
| 20260505195256 | 82 | 182 | 11.0 | 14.0 | 0.00 | 0.00 | 0.00 | 80 | 1008.5 |
| 20260505194742 | 82 | 190 | 11.0 | 15.0 | 0.00 | 0.00 | 0.00 | 80 | 1008.7 |
| 20260505193623 | 82 | 2 | 11.0 | 15.0 | 0.00 | 0.00 | 0.00 | 79 | 1008.6 |
| 20260505193125 | 82 | 2 | 11.0 | 15.0 | 0.00 | 0.00 | 0.00 | 80 | 1008.7 |
| 20260505191951 | 82 | 190 | 12.0 | 16.0 | 0.00 | 0.00 | 0.00 | 80 | 1008.7 |
| 20260505191437 | 82 | 167 | 12.0 | 16.0 | 0.00 | 0.00 | 0.00 | 80 | 1008.8 |
| 20260505190924 | 82 | 2 | 12.0 | 16.0 | 0.00 | 0.00 | 0.00 | 80 | 1008.8 |
| 20260505190425 | 82 | 2 | 11.0 | 16.0 | 0.00 | 0.00 | 0.00 | 80 | 1008.8 |
| 20260505185911 | 82 | 2 | 11.0 | 14.0 | 0.00 | 0.00 | 0.00 | 80 | 1009.0 |
| 20260505185403 | 82 | 2 | 11.0 | 16.0 | 0.00 | 0.00 | 0.00 | 80 | 1009.1 |
| 20260505184847 | 82 | 2 | 11.0 | 16.0 | 0.00 | 0.00 | 0.00 | 80 | 1009.1 |
| 20260505183712 | 81 | 198 | 11.0 | 16.0 | 0.00 | 0.00 | 0.00 | 80 | 1009.2 |
| 20260505183214 | 81 | 190 | 11.0 | 14.0 | 0.00 | 0.00 | 0.00 | 80 | 1009.2 |
| 20260505182716 | 81 | 2 | 12.0 | 15.0 | 0.00 | 0.00 | 0.00 | 81 | 1009.2 |
| 20260505182206 | 81 | 2 | 12.0 | 15.0 | 0.00 | 0.00 | 0.00 | 81 | 1009.2 |
| 20260505181047 | 81 | 190 | 12.0 | 15.0 | 0.00 | 0.00 | 0.00 | 80 | 1009.2 |
| 20260505180538 | 81 | 193 | 10.0 | 15.0 | 0.00 | 0.00 | 0.00 | 80 | 1009.2 |
| 20260505180027 | 81 | 195 | 9.0 | 16.0 | 0.00 | 0.00 | 0.00 | 80 | 1009.3 |
| 20260505175511 | 81 | 2 | 11.0 | 16.0 | 0.00 | 0.00 | 0.00 | 80 | 1009.4 |
| 20260505175015 | 81 | 181 | 12.0 | 16.0 | 0.00 | 0.00 | 0.00 | 79 | 1009.3 |
| 20260505173906 | 82 | 188 | 11.0 | 15.0 | 0.00 | 0.00 | 0.00 | 79 | 1009.4 |
| 20260505172721 | 82 | 194 | 11.0 | 16.0 | 0.00 | 0.00 | 0.00 | 80 | 1009.7 |
| 20260505172213 | 81 | 183 | 12.0 | 17.0 | 0.00 | 0.00 | 0.00 | 80 | 1009.6 |
| 20260505171713 | 81 | 2 | 12.0 | 17.0 | 0.00 | 0.00 | 0.00 | 80 | 1009.5 |
| 20260505171153 | 81 | 2 | 12.0 | 17.0 | 0.00 | 0.00 | 0.00 | 80 | 1009.6 |
| 20260505170650 | 81 | 2 | 12.0 | 17.0 | 0.00 | 0.00 | 0.00 | 80 | 1009.6 |
| 20260505170158 | 81 | 2 | 12.0 | 17.0 | 0.00 | 0.00 | 0.00 | 80 | 1009.6 |
| 20260505165657 | 81 | 2 | 11.0 | 17.0 | 0.00 | 0.00 | 0.00 | 80 | 1009.7 |
| 20260505165150 | 81 | 200 | 11.0 | 15.0 | 0.00 | 0.00 | 0.00 | 80 | 1009.7 |
| 20260505164631 | 81 | 196 | 12.0 | 15.0 | 0.00 | 0.00 | 0.00 | 80 | 1009.8 |
| 20260505164125 | 81 | 191 | 11.0 | 15.0 | 0.00 | 0.00 | 0.00 | 80 | 1009.6 |
| 20260505163626 | 81 | 170 | 11.0 | 16.0 | 0.00 | 0.00 | 0.00 | 80 | 1009.6 |
| 20260505163117 | 81 | 179 | 12.0 | 16.0 | 0.00 | 0.00 | 0.00 | 80 | 1009.6 |
| 20260505162614 | 81 | 2 | 11.0 | 16.0 | 0.00 | 0.00 | 0.00 | 80 | 1009.5 |
| 20260505160813 | 81 | 2 | 11.0 | 17.0 | 0.00 | 0.00 | 0.00 | 80 | 1009.3 |
| 20260505160317 | 81 | 188 | 11.0 | 17.0 | 0.00 | 0.00 | 0.00 | 81 | 1009.5 |
| 20260505152620 | 80 | 169 | 12.0 | 15.0 | 0.00 | 0.00 | 0.00 | 81 | 1009.2 |
| 20260505152121 | 80 | 190 | 12.0 | 16.0 | 0.00 | 0.00 | 0.00 | 81 | 1009.2 |
| 20260505151624 | 80 | 2 | 12.0 | 16.0 | 0.00 | 0.00 | 0.00 | 81 | 1009.3 |
| 20260505151107 | 80 | 187 | 12.0 | 16.0 | 0.00 | 0.00 | 0.00 | 81 | 1009.3 |
| 20260505150552 | 80 | 186 | 12.0 | 16.0 | 0.00 | 0.00 | 0.00 | 81 | 1009.3 |
| 20260505140154 | 78 | 211 | 12.0 | 17.0 | 0.00 | 0.00 | 0.00 | 82 | 1009.1 |
| 20260505130142 | 78 | 180 | 14.0 | 18.0 | 0.00 | 0.00 | 0.00 | 82 | 1008.6 |
| 20260505124825 | 78 | 188 | 13.0 | 16.0 | 0.00 | 0.00 | 0.00 | 82 | 1008.6 |
| 20260505124306 | 78 | 196 | 13.0 | 19.0 | 0.00 | 0.00 | 0.00 | 82 | 1008.7 |
| 20260505123748 | 78 | 185 | 12.0 | 19.0 | 0.00 | 0.00 | 0.00 | 82 | 1008.9 |
| 20260505123243 | 78 | 198 | 13.0 | 19.0 | 0.00 | 0.00 | 0.00 | 82 | 1008.9 |
| 20260505122747 | 78 | 188 | 13.0 | 19.0 | 0.00 | 0.00 | 0.00 | 82 | 1008.7 |
| 20260505122252 | 78 | 192 | 13.0 | 17.0 | 0.00 | 0.00 | 0.00 | 82 | 1008.8 |
| 20260505121124 | 77 | 173 | 13.0 | 19.0 | 0.00 | 0.00 | 0.00 | 82 | 1008.6 |
| 20260505120608 | 77 | 173 | 13.0 | 19.0 | 0.00 | 0.00 | 0.00 | 82 | 1008.5 |
| 20260505120103 | 77 | 194 | 14.0 | 19.0 | 0.00 | 0.00 | 0.00 | 82 | 1008.5 |
| 20260505115549 | 77 | 187 | 12.0 | 18.0 | 0.00 | 0.00 | 0.00 | 82 | 1008.4 |
| 20260505115052 | 77 | 186 | 11.0 | 17.0 | 0.00 | 0.00 | 0.00 | 82 | 1008.5 |
| 20260505113910 | 77 | 182 | 11.0 | 17.0 | 0.00 | 0.00 | 0.00 | 82 | 1008.7 |
| 20260505113351 | 77 | 163 | 10.0 | 17.0 | 0.00 | 0.00 | 0.00 | 82 | 1009.0 |
| 20260505112857 | 77 | 207 | 11.0 | 17.0 | 0.00 | 0.00 | 0.00 | 82 | 1008.9 |
| 20260505112343 | 77 | 180 | 11.0 | 17.0 | 0.00 | 0.00 | 0.00 | 82 | 1008.6 |
| 20260505111840 | 77 | 175 | 11.0 | 17.0 | 0.00 | 0.00 | 0.00 | 82 | 1008.4 |
| 20260505111330 | 77 | 201 | 12.0 | 17.0 | 0.00 | 0.00 | 0.00 | 82 | 1008.4 |
| 20260505110823 | 77 | 196 | 12.0 | 17.0 | 0.00 | 0.00 | 0.00 | 82 | 1008.3 |
| 20260505110324 | 77 | 183 | 12.0 | 17.0 | 0.00 | 0.00 | 0.00 | 81 | 1008.2 |
| 20260505102219 | 77 | 202 | 11.0 | 17.0 | 0.00 | 0.00 | 0.00 | 81 | 1008.5 |
| 20260505101701 | 77 | 206 | 11.0 | 17.0 | 0.00 | 0.00 | 0.00 | 81 | 1008.4 |
| 20260505100523 | 77 | 188 | 10.0 | 16.0 | 0.00 | 0.00 | 0.00 | 81 | 1008.5 |
| 20260505100015 | 77 | 168 | 11.0 | 17.0 | 0.00 | 0.00 | 0.00 | 81 | 1008.6 |
| 20260505095456 | 77 | 189 | 11.0 | 17.0 | 0.00 | 0.00 | 0.00 | 81 | 1008.5 |
| 20260505094959 | 77 | 199 | 11.0 | 17.0 | 0.00 | 0.00 | 0.00 | 80 | 1008.5 |
| 20260505094505 | 77 | 183 | 11.0 | 17.0 | 0.00 | 0.00 | 0.00 | 80 | 1008.5 |
| 20260505092709 | 77 | 192 | 11.0 | 18.0 | 0.00 | 0.00 | 0.00 | 80 | 1008.5 |
| 20260505092148 | 77 | 212 | 11.0 | 18.0 | 0.00 | 0.00 | 0.00 | 80 | 1008.5 |
| 20260505091637 | 77 | 192 | 11.0 | 18.0 | 0.00 | 0.00 | 0.00 | 80 | 1008.4 |
| 20260505091118 | 77 | 202 | 11.0 | 18.0 | 0.00 | 0.00 | 0.00 | 80 | 1008.5 |
| 20260505090604 | 77 | 191 | 12.0 | 17.0 | 0.00 | 0.00 | 0.00 | 80 | 1008.4 |
| 20260505090106 | 77 | 198 | 12.0 | 19.0 | 0.00 | 0.00 | 0.00 | 80 | 1008.4 |
| 20260505085602 | 77 | 195 | 13.0 | 19.0 | 0.00 | 0.00 | 0.00 | 80 | 1008.3 |
| 20260505085108 | 77 | 177 | 12.0 | 20.0 | 0.00 | 0.00 | 0.00 | 80 | 1008.4 |
| 20260505084552 | 77 | 208 | 12.0 | 20.0 | 0.00 | 0.00 | 0.00 | 80 | 1008.4 |
| 20260505084059 | 77 | 208 | 12.0 | 20.0 | 0.00 | 0.00 | 0.00 | 80 | 1008.5 |
| 20260505083544 | 77 | 185 | 12.0 | 20.0 | 0.00 | 0.00 | 0.00 | 80 | 1008.6 |
| 20260505082419 | 77 | 177 | 13.0 | 20.0 | 0.00 | 0.00 | 0.00 | 80 | 1008.7 |
| 20260505081925 | 77 | 186 | 13.0 | 20.0 | 0.00 | 0.00 | 0.00 | 80 | 1008.8 |
| 20260505081410 | 77 | 180 | 13.0 | 18.0 | 0.00 | 0.00 | 0.00 | 80 | 1008.9 |
| 20260505080244 | 77 | 188 | 12.0 | 20.0 | 0.00 | 0.00 | 0.00 | 79 | 1009.0 |
| 20260505075724 | 77 | 212 | 12.0 | 20.0 | 0.00 | 0.00 | 0.00 | 79 | 1009.0 |
| 20260505075219 | 77 | 179 | 13.0 | 20.0 | 0.00 | 0.00 | 0.00 | 79 | 1009.0 |
| 20260505074718 | 77 | 194 | 13.0 | 19.0 | 0.00 | 0.00 | 0.00 | 79 | 1008.9 |
| 20260505074224 | 77 | 197 | 13.0 | 19.0 | 0.00 | 0.00 | 0.00 | 79 | 1008.9 |
| 20260505073705 | 77 | 173 | 13.0 | 20.0 | 0.00 | 0.00 | 0.00 | 79 | 1009.0 |
| 20260505072520 | 77 | 209 | 13.0 | 20.0 | 0.00 | 0.00 | 0.00 | 78 | 1009.3 |
| 20260505072024 | 77 | 183 | 12.0 | 20.0 | 0.00 | 0.00 | 0.00 | 78 | 1009.3 |
| 20260505071516 | 77 | 173 | 12.0 | 19.0 | 0.00 | 0.00 | 0.00 | 78 | 1009.4 |
| 20260505070356 | 77 | 180 | 12.0 | 20.0 | 0.00 | 0.00 | 0.00 | 78 | 1009.7 |
| 20260505065249 | 77 | 201 | 12.0 | 19.0 | 0.00 | 0.00 | 0.00 | 77 | 1009.7 |